Burnsville, North Carolina, United States (28714)
Lat: 35.92N, Lon: 82.3W
Wx Zone: NCZ049
Local Info
Past Weather Observations for Monday, July 28, 2014

NOTE: This archive is for the closest National Weather Service station to Burnsville. Information may differ from the station used for current weather conditions.

Click here for Long-term Archive

Time Weather Temperature Dewpoint Humidity Pressure Winds Precip Visibility
23:54
Mostly Cloudy
66°F / 19°C 57°F / 14°C 73% 30.04 in
(1017 mb)
N 5.8 mph
(N 9 kph)
- 10SM
22:54
Mostly Cloudy
68°F / 20°C 57°F / 14°C 69% 30.04 in
(1017 mb)
N 5.8 mph
(N 9 kph)
- 10SM
21:54
Partly Cloudy
68°F / 20°C 55°F / 13°C 64% 30.04 in
(1017 mb)
N 10.4 mph
(N 17 kph)
- 10SM
20:54
Overcast
70°F / 21°C 57°F / 14°C 64% 30.01 in
(1016 mb)
N 12.7 mph
(N 20 kph)
- 10SM
19:54
Partly Cloudy
70°F / 21°C 57°F / 14°C 64% 30.01 in
(1016 mb)
NNW 10.4 mph
(NNW 17 kph)
- 10SM
18:54
Partly Cloudy
73°F / 23°C 55°F / 13°C 53% 29.98 in
(1015 mb)
NNW 13.8 mph
(NNW 22 kph)
- 10SM
17:54
Mostly Cloudy
75°F / 24°C 55°F / 13°C 50% 29.98 in
(1015 mb)
NNW 16.1 mph
(NNW 26 kph)
- 10SM
16:54
Partly Cloudy
79°F / 26°C 54°F / 12°C 42% 29.98 in
(1015 mb)
N 13.8 mph
(N 22 kph)
- 10SM
15:54
Clear
79°F / 26°C 55°F / 13°C 45% 29.98 in
(1015 mb)
N 16.1 mph
(N 26 kph)
- 10SM
14:54
Clear
79°F / 26°C 55°F / 13°C 45% 29.95 in
(1014 mb)
NNW 19.6 mph
(NNW 32 kph)
- 10SM
13:54
Clear
81°F / 27°C 55°F / 13°C 42% 29.95 in
(1014 mb)
NNW 21.9 mph
(NNW 35 kph)
- 10SM
12:54
Partly Cloudy
79°F / 26°C 57°F / 14°C 48% 29.95 in
(1014 mb)
N 16.1 mph
(N 26 kph)
- 10SM
11:54
Clear
81°F / 27°C 57°F / 14°C 45% 29.95 in
(1014 mb)
NW 19.6 mph
(NW 32 kph)
- 10SM
10:54
Clear
79°F / 26°C 57°F / 14°C 48% 29.95 in
(1014 mb)
NW 17.3 mph
(NW 28 kph)
- 10SM
09:54
Clear
77°F / 25°C 63°F / 17°C 61% 29.95 in
(1014 mb)
NNW 16.1 mph
(NNW 26 kph)
- 10SM
08:54
Clear
73°F / 23°C 64°F / 18°C 74% 29.95 in
(1014 mb)
NNW 11.5 mph
(NNW 19 kph)
- 10SM
07:54
Clear
70°F / 21°C 64°F / 18°C 83% 29.95 in
(1014 mb)
NNW 10.4 mph
(NNW 17 kph)
- 10SM
06:54
Clear
66°F / 19°C 63°F / 17°C 88% 29.95 in
(1014 mb)
NNW 13.8 mph
(NNW 22 kph)
- 10SM
05:54
Clear
64°F / 18°C 63°F / 17°C 94% 29.95 in
(1014 mb)
N 12.7 mph
(N 20 kph)
- 10SM
04:54
Clear
64°F / 18°C 63°F / 17°C 94% 29.95 in
(1014 mb)
NW 4.6 mph
(NW 7 kph)
- 10SM
04:33
Partly Cloudy
64°F / 18°C 63°F / 17°C 94% 29.95 in
(1014 mb)
NW 3.5 mph
(NW 6 kph)
- 10SM
04:02
Mostly Cloudy
64°F / 18°C 63°F / 17°C 94% 29.95 in
(1014 mb)
Calm - 10SM
03:54
Partly Cloudy
64°F / 18°C 63°F / 17°C 94% 29.95 in
(1014 mb)
Calm 0.00 in
(0.00 mm)
10SM
03:50
Mostly Cloudy
64°F / 18°C 63°F / 17°C 94% 29.95 in
(1014 mb)
Calm 0.00 in
(0.00 mm)
10SM
02:54
Partly Cloudy
64°F / 18°C 64°F / 18°C 100% 29.98 in
(1015 mb)
SSE 3.5 mph
(SSE 6 kph)
0.02 in
(0.51 mm)
10SM
02:25
Mostly Cloudy
Light Rain
64°F / 18°C 63°F / 17°C 94% 29.98 in
(1015 mb)
Calm 0.02 in
(0.51 mm)
10SM
02:10
Overcast
Thunder Storms
64°F / 18°C 63°F / 17°C 94% 29.98 in
(1015 mb)
Calm 0.01 in
(0.25 mm)
10SM
01:54
Overcast
Rain
64°F / 18°C 63°F / 17°C 94% 29.98 in
(1015 mb)
Calm 0.35 in
(8.89 mm)
6SM
01:31
Overcast
Thunder Storms
64°F / 18°C 63°F / 17°C 94% 30.01 in
(1016 mb)
N 6.9 mph
(N 11 kph)
0.29 in
(7.37 mm)
7SM
01:16
Overcast
Thunder Storms
64°F / 18°C 63°F / 17°C 94% 30.01 in
(1016 mb)
N 6.9 mph
(N 11 kph)
0.26 in
(6.60 mm)
5SM
01:07
Overcast
Heavy Rain
64°F / 18°C 63°F / 17°C 94% 30.04 in
(1017 mb)
NNW 8.1 mph
(NNW 13 kph)
0.22 in
(5.59 mm)
3SM
01:01
Overcast
Thunder Storms
64°F / 18°C 63°F / 17°C 94% 30.01 in
(1016 mb)
N 10.4 mph
(N 17 kph)
0.16 in
(4.06 mm)
2SM
00:54
Overcast
Thunder Storms
64°F / 18°C 63°F / 17°C 94% 30.01 in
(1016 mb)
NNW 13.8 mph
(NNW 22 kph)
0.23 in
(5.84 mm)
1 3/4SM
00:35
Mostly Cloudy
Thunder Storms
66°F / 19°C 63°F / 17°C 88% 30.01 in
(1016 mb)
N 15 mph
(N 24 kph)
0.03 in
(0.76 mm)
7SM
00:03
Mostly Cloudy
Thunder Storms
68°F / 20°C 64°F / 18°C 88% 30.04 in
(1017 mb)
N 15 mph
(N 24 kph)
0.00 in
(0.00 mm)
10SM
Time Weather Temperature Dewpoint Humidity Pressure Winds Precip Visibility


Weather for websites

WeatherForYou.com, LLC is not responsible for any damages or problems caused by this service. Current weather conditions are obtained from the closest station including government and personal stations which may have varying degrees of accuracy. Weather forecasts are derived from the NOAA NDFD. Like all things, this site belongs to Jesus Christ... He just trusts me to maintain it. If you have any questions or comments email webmaster@weatherforyou.com

Copyright © 2014, WeatherForYou.com LLC. All rights reserved.